date,time,back_twd,avg_twd,veer_twd,min_tws,avg_tws,max_tws,avg_Pressure,avg_humidity,avg_temperature,avg_dewpoint,avg_volt,sampleSize
2012/11/27,00:00.00,294,315,329,4.74,6.33,8.32,999.5,86.4,6.1,4.1,11.6,373
2012/11/27,00:10.00,305,321,342,4.98,6.63,8.4,999.4,86.9,6.1,4.1,11.6,358
2012/11/27,00:20.00,313,326,339,4.41,7.34,9.93,999.4,87.3,6.1,4.2,11.6,336
2012/11/27,00:30.00,305,324,337,5.81,7.5,9.1,999.3,87.7,6.2,4.3,11.6,322
2012/11/27,00:40.00,306,324,340,4.55,6.71,9.43,999.2,88.0,6.2,4.3,11.6,335
2012/11/27,00:50.00,306,319,332,5.13,6.6,8.18,999.0,88.3,6.2,4.4,11.6,340
2012/11/27,01:00.00,292,311,324,3.87,6.13,7.76,999.0,88.5,6.2,4.5,11.6,333
2012/11/27,01:10.00,293,310,333,4.92,7.32,9.39,998.9,88.7,6.3,4.5,11.6,319
2012/11/27,01:20.00,296,312,327,4.72,7.86,12.38,998.8,88.9,6.3,4.6,11.6,315
2012/11/27,01:30.00,303,318,337,5.29,7.91,10.42,998.8,89.1,6.4,4.7,11.6,309
2012/11/27,01:40.00,296,316,334,4.06,7.02,9.54,998.8,89.3,6.4,4.8,11.6,302
2012/11/27,01:50.00,300,322,338,5.5,8.17,11.33,998.7,89.6,6.4,4.9,11.6,315
2012/11/27,02:00.00,314,326,348,5.71,9.87,13.61,998.6,89.7,6.5,4.9,11.6,291
2012/11/27,02:10.00,311,325,343,6.98,10.49,14.35,998.6,89.7,6.5,4.9,11.6,293
2012/11/27,02:20.00,313,324,335,7.46,10.88,14.29,998.6,89.8,6.4,4.9,11.5,284
2012/11/27,02:30.00,319,328,342,7.11,10.21,13.63,998.6,90.1,6.4,4.9,11.5,300
2012/11/27,02:40.00,311,330,345,7.62,10.43,14.5,998.6,90.4,6.4,5.0,11.5,294
2012/11/27,02:50.00,313,331,353,7.11,10.39,14.83,998.6,90.7,6.4,5.0,11.5,276
2012/11/27,03:00.00,320,336,351,7.46,10.84,16.74,998.6,90.9,6.6,5.2,11.5,283
2012/11/27,03:10.00,325,337,352,7.15,10.23,15.61,998.5,91.1,6.6,5.3,11.5,301
2012/11/27,03:20.00,314,338,2,6.41,9.54,16.44,998.6,91.2,6.6,5.3,11.5,290
2012/11/27,03:30.00,328,340,358,7.0,10.21,14.73,998.7,91.2,6.7,5.4,11.5,273
2012/11/27,03:40.00,326,341,357,6.16,11.02,16.89,998.7,91.2,6.8,5.5,11.5,271
2012/11/27,03:50.00,320,335,356,6.88,10.69,15.38,998.7,91.1,6.8,5.5,11.5,284
2012/11/27,04:00.00,321,337,356,7.56,10.91,16.54,998.6,90.9,6.9,5.5,11.5,281
2012/11/27,04:10.00,320,335,352,7.31,11.06,16.21,998.6,90.8,6.9,5.5,11.5,272
2012/11/27,04:20.00,318,337,0,6.88,11.32,17.09,998.7,90.9,6.9,5.5,11.5,286
2012/11/27,04:30.00,325,348,14,6.69,10.84,15.32,998.8,91.0,6.9,5.5,11.5,297
2012/11/27,04:40.00,330,359,18,7.46,12.09,17.46,998.8,90.9,6.9,5.5,11.5,284
2012/11/27,04:50.00,321,358,24,4.92,11.91,17.26,998.8,90.6,6.9,5.5,11.5,289
2012/11/27,05:00.00,334,358,26,7.44,15.61,20.16,998.6,90.2,6.9,5.4,11.5,301
2012/11/27,05:10.00,340,359,23,7.1,14.09,18.27,998.7,89.7,6.9,5.3,11.5,291
2012/11/27,05:20.00,322,356,17,9.33,14.51,19.03,998.8,89.4,6.9,5.3,11.5,270
2012/11/27,05:30.00,347,0,22,7.54,14.56,20.82,998.9,89.1,6.8,5.2,11.5,283
2012/11/27,05:40.00,325,359,34,4.55,13.51,21.56,999.0,88.9,6.8,5.1,11.5,287
2012/11/27,05:50.00,331,2,30,7.54,15.87,19.89,999.0,88.7,6.8,5.1,11.5,273
2012/11/27,06:00.00,332,1,31,8.84,15.8,20.0,999.0,88.5,6.8,5.1,11.5,300
2012/11/27,06:10.00,335,4,34,7.08,14.56,18.87,999.2,88.5,6.8,5.1,11.5,300
2012/11/27,06:20.00,342,7,36,4.63,12.98,17.69,999.4,88.5,6.9,5.1,11.5,323
2012/11/27,06:30.00,342,10,100,3.67,12.24,17.55,999.5,88.5,6.8,5.0,11.5,291
2012/11/27,06:40.00,340,9,52,3.93,12.28,17.11,999.6,88.5,6.8,5.0,11.5,293
2012/11/27,06:50.00,341,3,42,6.49,11.89,16.19,999.7,88.5,6.8,5.0,11.5,324
2012/11/27,07:00.00,305,3,72,4.35,12.06,16.44,999.8,88.5,6.8,5.0,11.5,288
2012/11/27,07:10.00,349,3,17,4.7,12.46,17.77,1000.0,88.6,6.8,5.0,11.5,277
2012/11/27,07:20.00,340,4,36,6.3,12.37,17.11,1000.2,88.7,6.8,5.1,11.5,291
2012/11/27,07:30.00,343,4,34,7.17,13.97,18.72,1000.3,88.7,6.8,5.1,11.5,305
2012/11/27,07:40.00,336,8,30,6.01,12.9,16.89,1000.4,88.8,6.8,5.1,11.5,293
2012/11/27,07:50.00,341,5,87,2.27,12.97,17.32,1000.5,88.9,6.8,5.1,11.5,299
2012/11/27,08:00.00,346,2,23,4.96,13.67,18.29,1000.5,88.9,6.8,5.1,11.5,330
2012/11/27,08:10.00,337,0,18,6.3,12.81,16.74,1000.6,89.0,6.8,5.1,11.4,340
2012/11/27,08:20.00,341,2,27,6.18,12.74,16.66,1000.8,89.2,6.8,5.1,11.4,287
2012/11/27,08:30.00,340,4,32,5.11,13.7,19.32,1001.0,89.2,6.8,5.2,11.4,310
2012/11/27,08:40.00,330,4,31,5.42,13.27,18.0,1001.1,89.2,6.9,5.3,11.4,462
2012/11/27,08:50.00,332,4,79,3.89,11.84,16.81,1001.2,89.2,7.0,5.3,11.4,492
2012/11/27,09:00.00,340,358,19,4.67,12.01,16.81,1001.3,89.2,7.0,5.3,11.4,494
2012/11/27,09:10.00,342,356,18,8.01,13.65,19.09,1001.3,89.1,7.0,5.4,11.4,488
2012/11/27,09:20.00,333,357,22,6.26,13.4,18.23,1001.4,88.9,7.1,5.4,11.4,489
2012/11/27,09:30.00,341,3,23,7.19,14.18,19.21,1001.6,88.8,7.2,5.5,11.4,468
2012/11/27,09:40.00,331,6,44,5.83,13.0,19.13,1001.7,88.6,7.3,5.6,11.4,491
2012/11/27,09:50.00,349,4,31,3.75,11.47,16.17,1001.9,88.4,7.4,5.6,12.0,380
2012/11/27,10:00.00,348,8,47,3.97,12.5,18.16,1001.9,88.3,7.5,5.7,11.9,444
2012/11/27,10:10.00,328,4,47,5.52,12.3,17.63,1002.0,87.8,7.7,5.8,11.7,460
2012/11/27,10:20.00,344,9,44,4.92,11.42,16.02,1002.2,87.6,7.8,5.8,11.6,441
2012/11/27,10:30.00,338,14,68,3.91,11.36,16.74,1002.3,87.5,7.9,5.9,11.6,458
2012/11/27,10:50.00,338,7,28,6.47,13.7,18.7,1002.3,87.1,8.0,6.0,11.5,155
2012/11/27,11:00.00,329,6,63,3.23,14.41,20.14,1002.3,87.1,8.0,6.0,11.5,434
2012/11/27,11:10.00,341,4,28,7.33,14.11,18.33,1002.4,87.8,8.0,6.1,11.5,463
2012/11/27,11:20.00,349,4,21,7.13,13.73,18.17,1002.5,88.9,8.1,6.4,11.5,178
2012/11/27,11:30.00,324,357,13,8.49,13.33,18.86,1002.5,88.9,8.1,6.4,11.5,498
2012/11/27,11:40.00,332,0,36,6.63,12.47,18.66,1002.5,88.5,8.3,6.5,11.4,526
2012/11/27,11:50.00,343,8,39,6.61,14.86,22.53,1002.5,87.8,8.5,6.6,12.6,375
2012/11/27,12:00.00,350,7,74,2.66,16.45,24.98,1002.5,86.7,8.6,6.5,12.8,381
2012/11/27,12:10.00,343,12,128,1.03,15.37,23.93,1002.6,85.6,8.7,6.4,13.0,513
2012/11/27,12:20.00,340,11,83,4.41,15.07,24.57,1002.6,84.7,8.8,6.4,13.1,422
2012/11/27,12:30.00,309,14,102,2.59,14.7,23.0,1002.7,83.8,8.8,6.3,13.1,471
2012/11/27,12:40.00,345,14,55,6.65,16.35,31.41,1002.9,85.2,8.6,6.2,13.2,460
2012/11/27,12:50.00,319,15,66,5.44,18.0,27.64,1002.8,86.6,8.4,6.3,13.3,470
2012/11/27,13:00.00,293,12,64,4.32,18.69,29.99,1002.9,86.8,8.3,6.3,13.4,275
2012/11/27,13:10.00,344,16,46,9.68,18.81,29.25,1002.8,85.8,8.5,6.2,13.5,134
2012/11/27,13:20.00,356,16,58,7.64,18.01,28.63,1002.9,84.5,8.6,6.1,13.5,319
2012/11/27,13:30.00,326,13,54,5.35,19.56,29.72,1002.9,82.6,8.6,5.8,13.2,447
2012/11/27,13:40.00,341,18,56,4.78,19.3,32.0,1003.0,80.6,8.8,5.6,12.0,429
2012/11/27,13:50.00,348,13,99,5.07,18.99,25.72,1003.1,79.5,8.8,5.5,11.9,441
2012/11/27,14:00.00,334,13,125,4.7,20.94,34.48,1003.1,79.3,8.8,5.4,11.9,476
2012/11/27,14:10.00,339,13,64,3.48,19.36,29.1,1003.4,79.7,8.8,5.5,11.9,484
2012/11/27,14:20.00,336,13,91,6.3,20.94,30.67,1003.5,80.7,8.6,5.5,11.9,411
2012/11/27,14:30.00,342,13,61,4.45,20.5,34.66,1003.6,81.9,8.4,5.5,11.9,482
2012/11/27,14:40.00,339,18,94,2.6,21.23,36.58,1003.7,82.7,8.3,5.5,11.8,563
2012/11/27,14:50.00,301,15,117,1.71,20.32,34.44,1003.9,82.8,8.2,5.5,11.8,528
2012/11/27,15:00.00,262,18,101,2.47,19.21,34.48,1003.9,81.2,8.3,5.3,11.8,505
2012/11/27,15:10.00,337,17,50,7.85,22.87,33.47,1004.0,79.4,8.3,5.0,11.8,519
2012/11/27,15:20.00,346,18,53,6.78,20.04,34.04,1004.3,78.6,8.4,4.9,11.8,516
2012/11/27,15:30.00,317,20,61,5.33,20.93,33.82,1004.4,77.8,8.4,4.7,11.8,519
2012/11/27,15:40.00,351,19,84,1.15,21.14,34.87,1004.6,77.0,8.4,4.6,11.8,525
2012/11/27,15:50.00,345,15,60,6.9,18.81,28.24,1004.8,76.6,8.4,4.5,11.8,524
2012/11/27,16:00.00,351,16,62,8.11,19.43,29.82,1004.8,76.2,8.4,4.5,11.8,527
2012/11/27,16:10.00,351,18,101,1.19,20.04,31.72,1005.0,76.3,8.3,4.4,11.8,526
2012/11/27,16:20.00,326,15,57,4.12,17.5,26.84,1005.1,76.0,8.3,4.3,11.8,531
2012/11/27,16:30.00,346,14,75,5.64,19.77,30.91,1005.2,76.2,8.2,4.3,11.7,410
2012/11/27,16:40.00,349,16,47,7.6,20.12,29.18,1005.4,75.8,8.2,4.2,11.7,340
2012/11/27,16:50.00,345,16,48,9.6,18.08,26.77,1005.7,75.5,8.1,4.1,11.7,299
2012/11/27,17:00.00,353,16,44,8.32,21.25,33.75,1005.8,75.7,8.1,4.1,11.7,282
2012/11/27,17:10.00,333,16,78,5.89,19.9,29.8,1006.0,75.8,7.9,3.9,11.7,297
2012/11/27,17:20.00,246,14,74,2.57,21.01,33.41,1006.2,76.0,7.8,3.9,11.7,279
2012/11/27,17:30.00,329,16,59,8.59,21.08,30.67,1006.4,75.9,7.8,3.8,11.7,304
2012/11/27,17:40.00,332,12,85,5.97,19.81,34.56,1006.5,75.9,7.7,3.7,11.7,362
2012/11/27,17:50.00,344,11,72,7.43,17.28,23.37,1006.7,76.7,7.6,3.8,11.7,362
2012/11/27,18:00.00,340,14,35,11.57,19.68,33.63,1006.7,76.8,7.6,3.8,11.7,362
2012/11/27,18:10.00,341,12,43,5.6,20.92,35.34,1006.6,76.2,7.6,3.7,11.7,380
2012/11/27,18:20.00,268,14,40,5.44,21.51,34.97,1006.7,75.5,7.6,3.5,11.7,344
2012/11/27,18:30.00,357,14,97,4.57,20.95,28.96,1006.8,74.4,7.5,3.3,11.7,392
2012/11/27,18:40.00,354,12,185,3.91,20.63,27.97,1007.0,74.3,7.5,3.3,11.7,392
2012/11/27,18:50.00,287,15,50,3.42,19.66,31.1,1007.2,73.9,7.5,3.2,11.7,374
2012/11/27,19:00.00,340,13,64,8.9,20.56,33.12,1007.3,73.3,7.6,3.1,11.7,383
2012/11/27,19:10.00,348,16,179,2.37,20.66,34.04,1007.4,71.7,7.7,3.0,11.7,386
2012/11/27,19:20.00,351,16,58,4.78,20.44,31.08,1007.4,71.5,7.8,2.9,11.7,366
2012/11/27,19:30.00,337,14,65,5.44,24.4,36.41,1007.5,72.1,7.8,3.0,11.7,391
2012/11/27,19:40.00,351,15,50,3.5,21.85,34.91,1007.7,72.4,7.8,3.1,11.6,370
2012/11/27,19:50.00,349,14,85,3.52,23.98,37.4,1007.9,72.8,7.7,3.2,11.6,368
2012/11/27,20:00.00,348,14,56,6.2,20.65,31.12,1008.2,73.7,7.6,3.2,11.6,417
2012/11/27,20:10.00,288,14,84,2.92,18.59,26.53,1008.3,75.0,7.6,3.4,11.6,422
2012/11/27,20:20.00,330,14,136,6.24,18.72,32.64,1008.4,75.6,7.6,3.5,11.6,430
2012/11/27,20:30.00,355,15,119,5.46,18.71,28.26,1008.5,76.0,7.5,3.6,11.6,394
2012/11/27,20:40.00,338,14,71,6.45,18.66,26.84,1008.6,76.3,7.6,3.7,11.6,407
2012/11/27,20:50.00,330,16,68,3.29,19.09,27.37,1008.7,75.9,7.6,3.6,11.6,392
2012/11/27,21:00.00,348,16,49,4.8,18.55,26.63,1008.8,75.2,7.6,3.5,11.6,334
2012/11/27,21:10.00,351,14,56,9.04,18.9,30.98,1008.9,75.1,7.6,3.4,11.6,300
2012/11/27,21:20.00,335,14,51,8.75,17.6,25.91,1008.9,75.2,7.5,3.4,11.6,294
2012/11/27,21:30.00,225,14,92,2.6,18.28,26.2,1009.0,75.7,7.4,3.4,11.6,318
2012/11/27,21:40.00,355,16,47,8.51,18.53,27.45,1009.1,76.0,7.3,3.4,11.6,357
2012/11/27,21:50.00,348,16,144,0.58,18.3,24.53,1009.1,76.7,7.3,3.5,11.6,324
2012/11/27,22:00.00,354,16,51,10.36,17.2,22.88,1009.2,77.6,7.2,3.6,11.6,279
2012/11/27,22:10.00,287,17,86,1.71,17.19,26.34,1009.2,78.1,7.3,3.7,11.6,316
2012/11/27,22:20.00,357,19,45,7.04,17.81,25.04,1009.3,78.3,7.3,3.8,11.6,321
2012/11/27,22:30.00,328,15,55,4.8,17.69,24.73,1009.3,78.4,7.3,3.8,11.6,320
2012/11/27,22:40.00,342,14,58,7.0,16.5,23.48,1009.3,78.6,7.3,3.8,11.6,299
2012/11/27,22:50.00,347,15,44,6.8,17.07,24.2,1009.4,78.5,7.2,3.8,11.6,300
2012/11/27,23:00.00,354,14,58,8.4,17.16,25.41,1009.4,78.3,7.1,3.6,11.6,287
2012/11/27,23:10.00,350,11,52,7.35,16.61,22.65,1009.4,78.7,7.0,3.6,11.6,280
2012/11/27,23:20.00,333,9,46,5.13,16.36,31.24,1009.5,79.3,7.0,3.7,11.5,278
2012/11/27,23:30.00,343,11,53,5.02,17.38,28.42,1009.5,79.6,7.0,3.8,11.5,284
2012/11/27,23:40.00,342,14,72,5.85,16.68,24.55,1009.6,79.5,7.1,3.8,11.5,280
2012/11/27,23:50.00,359,17,45,5.54,17.37,23.91,1009.6,79.6,7.1,3.8,11.5,255
